Terug naar catalogus

INTELSAT 4A-F4

ActiefCommunicatieGEO
NORAD 10024·PAYLOAD· XX

Gelanceerd May 26, 1977 vanaf Cape Canaveral Space Force Station

Loading…

TLE

VersSource: Space-Track

Epoch: Sep 14, 2026, 12:31 UTC

1 10024U 77041A   26257.52211353 -.00000055  00000-0  00000-0 0  9991
2 10024   8.7312 310.5936 0014151 275.2969 144.7455  0.99446283 47870

Volg INTELSAT 4A-F4 in realtime met AllMySat

Download on the App Store